EW3919 Weather Reports


time (UTC)temp
F
wind
direction
speed
knots
gust
knots
rain 1hr
in
rain 24hr
in
rain mn
in
humidity
%
barometer
mb
20260506132517 66 0.0 0.0 0.00 0.00 0.00 83 1016.7
20260506132016 65 0.0 0.0 0.00 0.00 0.00 83 1016.7
20260506131516 65 0.0 0.9 0.00 0.00 0.00 83 1016.6
20260506131016 65 0.0 2.6 0.00 0.00 0.00 83 1016.7
20260506130536 65 0.0 0.0 0.00 0.00 0.00 83 1016.6
20260506130016 65 0.0 0.0 0.00 0.00 0.00 83 1016.5
20260506125516 65 0.0 0.0 0.00 0.00 0.00 84 1016.5
20260506125016 65 0.0 0.0 0.00 0.00 0.00 83 1016.4
20260506124516 65 0.0 0.0 0.00 0.00 0.00 83 1016.4
20260506124016 65 0.0 0.0 0.00 0.00 0.00 83 1016.3
20260506123536 65 0.0 0.0 0.00 0.00 0.00 84 1016.3
20260506123016 65 0.0 0.0 0.00 0.00 0.00 83 1016.1
20260506122516 65 0.0 0.9 0.00 0.00 0.00 83 1016.0
20260506122016 65 0.0 0.0 0.00 0.00 0.00 83 1016.1
20260506121516 65 0.0 0.0 0.00 0.00 0.00 83 1016.1
20260506121056 64 0.0 2.6 0.00 0.00 0.00 84 1016.2
20260506120516 64 0.0 0.0 0.00 0.00 0.00 83 1016.1
20260506120016 64 0.0 0.9 0.00 0.00 0.00 84 1015.9
20260506115536 64 0.0 0.9 0.00 0.00 0.00 84 1015.9
20260506115016 63 0.0 0.0 0.00 0.00 0.00 83 1016.1
20260506114516 63 0.0 0.0 0.00 0.00 0.00 84 1015.9
20260506114016 63 0.0 0.0 0.00 0.00 0.00 84 1015.7
20260506113516 63 0.0 0.0 0.00 0.00 0.00 84 1015.8
20260506113036 63 0.0 0.0 0.00 0.00 0.00 84 1015.7
20260506112516 63 0.0 0.0 0.00 0.00 0.00 83 1015.6
20260506112016 63 0.0 0.0 0.00 0.00 0.00 83 1015.4
20260506111516 63 0.0 0.0 0.00 0.00 0.00 83 1015.3
20260506111016 63 0.0 0.9 0.00 0.00 0.00 83 1015.1
20260506110515 63 0.0 0.0 0.00 0.00 0.00 83 1015.1
20260506110016 63 0.0 0.0 0.00 0.00 0.00 83 1015.0
20260506105516 63 0.0 0.0 0.00 0.00 0.00 83 1014.9
20260506105016 63 0.0 0.0 0.00 0.00 0.00 83 1014.7
20260506104516 63 0.0 2.6 0.00 0.00 0.00 82 1014.5
20260506104016 63 0.0 0.0 0.00 0.00 0.00 82 1014.7
20260506103556 63 0.0 0.0 0.00 0.00 0.00 82 1014.7
20260506103016 63 0.0 0.0 0.00 0.00 0.00 82 1014.8
20260506102518 63 0.0 0.0 0.00 0.00 0.00 82 1014.8
20260506102016 63 0.0 0.0 0.00 0.00 0.00 82 1014.8
20260506101516 63 0.0 0.9 0.00 0.00 0.00 81 1014.8
20260506101015 63 0.0 0.0 0.00 0.00 0.00 81 1014.7
20260506100516 63 0.0 0.0 0.00 0.00 0.00 81 1014.7
20260506100016 63 0.0 0.0 0.00 0.00 0.00 81 1014.6
20260506095536 63 0.0 0.0 0.00 0.00 0.00 81 1014.6
20260506095016 63 0.0 0.0 0.00 0.00 0.00 80 1014.6
20260506094516 64 0.0 0.0 0.00 0.00 0.00 80 1014.7
20260506094016 64 0.0 0.9 0.00 0.00 0.00 80 1014.7
20260506093516 64 0.0 0.9 0.00 0.00 0.00 79 1014.6
20260506093015 64 0.0 0.0 0.00 0.00 0.00 79 1014.6
20260506092535 64 0.0 0.0 0.00 0.00 0.00 79 1014.6
20260506092016 64 0.0 0.0 0.00 0.00 0.00 79 1014.8
20260506091516 65 0.0 0.0 0.00 0.00 0.00 79 1014.8
20260506091015 65 0.0 0.0 0.00 0.00 0.00 78 1014.8
20260506090515 65 0.0 0.0 0.00 0.00 0.00 78 1014.8
20260506090016 65 0.0 0.0 0.00 0.00 0.00 78 1014.8
20260506085516 65 0.0 1.7 0.00 0.00 0.00 78 1014.8
20260506085017 65 0.0 0.0 0.00 0.00 0.00 78 1014.9
20260506084518 65 0.0 0.0 0.00 0.00 0.00 78 1015.0
20260506084038 65 0.0 0.0 0.00 0.00 0.00 78 1015.1
20260506083518 65 0.0 0.0 0.00 0.00 0.00 78 1015.1
20260506083017 65 0.0 0.0 0.00 0.00 0.00 78 1015.2
20260506082518 65 0.0 0.0 0.00 0.00 0.00 78 1015.3
20260506082017 65 0.0 0.0 0.00 0.00 0.00 77 1015.3
20260506081537 65 0.0 0.0 0.00 0.00 0.00 77 1015.3
20260506081017 65 0.0 0.0 0.00 0.00 0.00 77 1015.4
20260506080518 65 0.0 0.0 0.00 0.00 0.00 77 1015.4
20260506073517 65 0.0 0.0 0.00 0.00 0.00 76 1015.4
20260506073017 65 0.0 0.0 0.00 0.00 0.00 76 1015.4
20260506072517 65 0.0 0.0 0.00 0.00 0.00 76 1015.5
20260506072017 65 0.0 0.0 0.00 0.00 0.00 76 1015.4
20260506071537 65 0.0 0.0 0.00 0.00 0.00 76 1015.4
20260506071038 65 0.0 0.0 0.00 0.00 0.00 76 1015.4
20260506070517 65 0.0 1.7 0.00 0.00 0.00 75 1015.3
20260506062517 66 0.0 0.0 0.00 0.00 0.00 75 1014.9
20260506062017 66 0.0 1.7 0.00 0.00 0.00 74 1015.0
20260506061517 66 0.0 2.6 0.00 0.00 0.00 74 1014.9
20260506061017 66 0.0 0.0 0.00 0.00 0.00 74 1015.0
20260506060517 66 0.0 4.3 0.00 0.00 0.00 74 1015.0
20260506051017 63 0.0 0.0 0.00 0.00 0.00 74 1015.1
20260506050537 62 0.0 0.0 0.00 0.00 0.00 75 1014.9
20260506045017 62 0.0 0.0 0.00 0.00 0.00 74 1015.2
20260506044537 62 0.0 0.0 0.00 0.00 0.00 73 1015.3
20260506044017 62 0.0 0.0 0.00 0.00 0.00 73 1015.5
20260506043517 63 0.0 0.0 0.00 0.00 0.00 73 1015.4
20260506043017 63 0.0 0.0 0.00 0.00 0.00 73 1015.3
20260506042538 63 0.0 0.0 0.00 0.00 0.00 72 1015.3
20260506042017 63 0.0 0.0 0.00 0.00 0.00 72 1015.3
20260506041537 63 0.0 0.0 0.00 0.00 0.00 72 1015.3
20260506041017 63 0.0 0.0 0.00 0.00 0.00 72 1015.2
20260506040517 63 0.0 0.0 0.00 0.00 0.00 71 1015.1
20260506040017 64 0.0 0.0 0.00 0.00 0.00 71 1015.2
20260506035537 64 0.0 0.0 0.00 0.00 0.00 71 1015.3
20260506035016 64 0.0 0.0 0.00 0.00 0.00 70 1015.2
20260506034517 64 0.0 0.0 0.00 0.00 0.00 70 1015.1
20260506034016 64 0.0 0.0 0.00 0.00 0.00 70 1015.1
20260506033517 65 0.0 0.0 0.00 0.00 0.00 70 1015.1
20260506033016 65 0.0 0.0 0.00 0.00 0.00 69 1015.1
20260506032516 65 0.0 0.0 0.00 0.00 0.00 69 1015.1
20260506032016 65 0.0 0.0 0.00 0.00 0.00 68 1015.2
20260506031516 66 0.0 0.0 0.00 0.00 0.00 67 1015.2
20260506031016 66 0.0 0.0 0.00 0.00 0.00 67 1015.2
20260506030516 66 0.0 0.0 0.00 0.00 0.00 66 1015.3
20260506030036 67 0.0 0.0 0.00 0.00 0.00 65 1015.3
20260506025516 67 0.0 0.0 0.00 0.00 0.00 64 1015.4
20260506025016 67 0.0 0.0 0.00 0.00 0.00 64 1015.2
20260506024516 68 0.0 0.0 0.00 0.00 0.00 63 1015.2
20260506024016 68 0.0 0.0 0.00 0.00 0.00 62 1015.2
20260506023516 68 0.0 0.0 0.00 0.00 0.00 62 1015.4
20260506023017 69 0.0 0.0 0.00 0.00 0.00 61 1015.4
20260506022537 69 0.0 0.0 0.00 0.00 0.00 61 1015.3
20260506022016 69 0.0 0.0 0.00 0.00 0.00 61 1015.1
20260506021516 69 0.0 0.0 0.00 0.00 0.00 61 1015.1
20260506021017 70 0.0 0.0 0.00 0.00 0.00 60 1015.0
20260506020516 70 0.0 0.0 0.00 0.00 0.00 60 1014.9
20260506020016 70 0.0 0.0 0.00 0.00 0.00 59 1014.9
20260506015516 70 0.0 0.0 0.00 0.00 0.00 59 1014.9
20260506015016 70 0.0 0.0 0.00 0.00 0.00 59 1014.8
20260506014516 70 0.0 0.0 0.00 0.00 0.00 59 1014.7
20260506014016 70 0.0 0.0 0.00 0.00 0.00 59 1014.7
20260506013516 70 0.0 0.0 0.00 0.00 0.00 59 1014.8
20260506013037 70 0.0 0.0 0.00 0.00 0.00 58 1014.9
20260506012536 71 0.0 0.0 0.00 0.00 0.00 57 1014.8
20260506012016 71 0.0 0.0 0.00 0.00 0.00 56 1014.7
20260506011516 72 0.0 0.0 0.00 0.00 0.00 55 1014.7
20260506011037 72 0.0 0.0 0.00 0.00 0.00 54 1014.7
20260506010537 73 0.0 0.0 0.00 0.00 0.00 53 1014.6
20260506010036 74 0.0 0.0 0.00 0.00 0.00 52 1014.7
20260506005516 74 0.0 0.0 0.00 0.00 0.00 51 1014.8
20260506005016 75 0.0 0.0 0.00 0.00 0.00 51 1014.7
20260506004557 75 0.0 0.0 0.00 0.00 0.00 49 1014.6
20260506004036 76 0.0 0.0 0.00 0.00 0.00 49 1014.6
20260506003516 76 0.0 0.0 0.00 0.00 0.00 49 1014.7
20260506003036 77 0.0 0.0 0.00 0.00 0.00 48 1014.6
20260506002516 77 0.0 0.0 0.00 0.00 0.00 48 1014.7
20260506002016 77 0.0 0.0 0.00 0.00 0.00 48 1014.6
20260506001516 77 0.0 0.0 0.00 0.00 0.00 47 1014.4
20260506001016 78 0.0 0.0 0.00 0.00 0.00 46 1014.3
20260506000536 78 0.0 0.0 0.00 0.00 0.00 46 1014.2
20260506000016 78 0.0 0.0 0.00 0.00 0.00 46 1014.2
20260505235516 79 0.0 0.0 0.00 0.00 0.00 44 1014.2
20260505235016 79 0.0 0.0 0.00 0.00 0.00 45 1014.0
20260505234516 79 0.0 3.5 0.00 0.00 0.00 44 1013.9
20260505234036 79 0.0 0.0 0.00 0.00 0.00 43 1013.9
20260505233516 79 180 0.9 6.1 0.00 0.00 0.00 44 1013.9
20260505233016 80 0.0 0.9 0.00 0.00 0.00 43 1013.9
20260505232516 80 0.0 0.0 0.00 0.00 0.00 44 1013.8
20260505232017 80 0.0 0.0 0.00 0.00 0.00 43 1014.0
20260505231516 80 0.0 0.0 0.00 0.00 0.00 44 1013.9
20260505231016 80 0.0 0.0 0.00 0.00 0.00 43 1013.9
20260505230516 80 0.0 0.0 0.00 0.00 0.00 42 1013.9
20260505230016 81 0.0 0.0 0.00 0.00 0.00 42 1013.9
20260505225516 81 0.0 0.0 0.00 0.00 0.00 42 1013.9
20260505225016 81 0.0 0.0 0.00 0.00 0.00 42 1013.8
20260505224536 81 135 0.9 6.1 0.00 0.00 0.00 41 1013.7
20260505224015 81 135 0.9 7.0 0.00 0.00 0.00 41 1013.7
20260505223536 81 203 0.9 4.3 0.00 0.00 0.00 40 1013.9
20260505223016 81 203 0.9 8.7 0.00 0.00 0.00 41 1014.1
20260505222515 82 225 0.9 7.0 0.00 0.00 0.00 41 1014.0
20260505222015 82 203 0.9 7.0 0.00 0.00 0.00 40 1013.8
20260505221516 82 0.0 0.9 0.00 0.00 0.00 41 1013.9
20260505221036 82 0.0 0.0 0.00 0.00 0.00 41 1014.0
20260505220536 83 0.0 0.0 0.00 0.00 0.00 41 1014.0
20260505220016 83 113 1.7 10.4 0.00 0.00 0.00 41 1014.2
20260505215515 83 0.0 6.1 0.00 0.00 0.00 41 1014.2
20260505215015 82 225 0.9 10.4 0.00 0.00 0.00 41 1014.2
20260505214516 82 0.0 4.3 0.00 0.00 0.00 41 1014.3
20260505214015 82 203 0.9 7.0 0.00 0.00 0.00 41 1014.2
20260505213515 82 203 1.7 7.8 0.00 0.00 0.00 41 1014.3
20260505213018 82 203 0.9 8.7 0.00 0.00 0.00 41 1014.4
20260505212518 83 225 1.7 10.4 0.00 0.00 0.00 40 1014.4
20260505212037 83 0.0 0.9 0.00 0.00 0.00 41 1014.3
20260505211518 83 203 0.9 5.2 0.00 0.00 0.00 42 1014.4
20260505211038 82 203 0.9 8.7 0.00 0.00 0.00 42 1014.4
20260505210518 83 90 0.9 7.8 0.00 0.00 0.00 42 1014.3
20260505210017 82 203 0.9 5.2 0.00 0.00 0.00 43 1014.4
20260505205518 81 0.0 6.1 0.00 0.00 0.00 43 1014.5
20260505205017 81 0.0 6.1 0.00 0.00 0.00 44 1014.5
20260505204517 81 203 0.9 5.2 0.00 0.00 0.00 44 1014.6
20260505204017 81 135 0.9 7.8 0.00 0.00 0.00 44 1014.7
20260505203517 81 0.0 0.9 0.00 0.00 0.00 44 1014.8
20260505203018 81 203 0.9 5.2 0.00 0.00 0.00 43 1014.8
20260505202518 82 225 1.7 13.0 0.00 0.00 0.00 43 1014.9
20260505202038 82 0.0 5.2 0.00 0.00 0.00 43 1014.8
20260505201537 81 225 0.9 13.0 0.00 0.00 0.00 46 1014.8
20260505201017 81 225 0.9 6.1 0.00 0.00 0.00 45 1014.8
20260505200518 81 225 1.7 9.6 0.00 0.00 0.00 45 1015.0
20260505200037 81 203 1.7 13.0 0.00 0.00 0.00 45 1015.0
20260505195517 82 0.0 3.5 0.00 0.00 0.00 45 1015.2
20260505195017 82 0.0 5.2 0.00 0.00 0.00 45 1015.2
20260505194518 82 158 0.9 4.3 0.00 0.00 0.00 44 1015.4
20260505194017 82 0.0 2.6 0.00 0.00 0.00 45 1015.4
20260505193517 81 90 0.9 7.0 0.00 0.00 0.00 44 1015.4
20260505193018 81 0.0 4.3 0.00 0.00 0.00 46 1015.5
20260505192518 81 203 1.7 10.4 0.00 0.00 0.00 46 1015.6
20260505192058 81 225 0.9 13.0 0.00 0.00 0.00 45 1015.8
20260505191517 82 203 0.9 5.2 0.00 0.00 0.00 47 1015.8
20260505191017 81 203 0.9 7.0 0.00 0.00 0.00 45 1015.8
20260505190517 81 180 0.9 11.3 0.00 0.00 0.00 47 1016.0
20260505190017 82 203 0.9 7.0 0.00 0.00 0.00 46 1016.0
20260505185517 81 0.0 7.8 0.00 0.00 0.00 46 1016.0
20260505185017 81 225 0.9 8.7 0.00 0.00 0.00 50 1016.1
20260505184517 81 225 1.7 13.0 0.00 0.00 0.00 47 1016.2
20260505184017 81 0.0 9.6 0.00 0.00 0.00 45 1016.3
20260505183517 81 0.0 0.0 0.00 0.00 0.00 48 1016.4
20260505183017 81 113 1.7 9.6 0.00 0.00 0.00 46 1016.5
20260505182517 81 113 0.9 5.2 0.00 0.00 0.00 49 1016.6
20260505182017 80 0.0 0.0 0.00 0.00 0.00 48 1016.6
20260505181537 80 0.0 0.0 0.00 0.00 0.00 46 1016.7
20260505181037 79 203 1.7 16.5 0.00 0.00 0.00 49 1016.7
20260505180517 79 0.0 0.0 0.00 0.00 0.00 49 1016.7
20260505180017 79 203 0.9 5.2 0.00 0.00 0.00 49 1016.9
20260505175517 79 0.0 5.2 0.00 0.00 0.00 48 1017.0
20260505175017 79 0.0 4.3 0.00 0.00 0.00 50 1016.7
20260505174517 79 0.0 0.0 0.00 0.00 0.00 51 1016.7
20260505174017 79 0.0 4.3 0.00 0.00 0.00 50 1016.8
20260505173517 80 0.0 0.0 0.00 0.00 0.00 50 1016.8
20260505173017 80 0.0 5.2 0.00 0.00 0.00 52 1016.9
20260505172537 80 90 1.7 10.4 0.00 0.00 0.00 53 1016.9
20260505172037 80 0.0 3.5 0.00 0.00 0.00 52 1016.9
20260505171517 79 90 0.9 8.7 0.00 0.00 0.00 52 1017.1
20260505171017 79 0.0 0.0 0.00 0.00 0.00 55 1017.0
20260505170517 78 135 0.9 8.7 0.00 0.00 0.00 54 1017.0
20260505170017 77 0.0 6.1 0.00 0.00 0.00 56 1017.2
20260505165537 77 0.0 6.1 0.00 0.00 0.00 54 1017.3
20260505165017 77 0.0 3.5 0.00 0.00 0.00 54 1017.4
20260505164537 78 203 0.9 4.3 0.00 0.00 0.00 55 1017.4
20260505164016 78 225 0.9 10.4 0.00 0.00 0.00 55 1017.5
20260505163517 78 0.0 0.0 0.00 0.00 0.00 56 1017.6
20260505163017 77 0.0 0.0 0.00 0.00 0.00 57 1017.6
20260505162517 76 0.0 0.0 0.00 0.00 0.00 59 1017.5
20260505162017 75 0.0 0.0 0.00 0.00 0.00 60 1017.6
20260505161517 75 203 1.7 10.4 0.00 0.00 0.00 59 1017.6
20260505161017 75 203 0.9 6.1 0.00 0.00 0.00 63 1017.6
20260505160517 75 0.0 0.0 0.00 0.00 0.00 61 1017.5
20260505153017 74 0.0 0.0 0.00 0.00 0.00 62 1017.9
20260505152517 74 0.0 4.3 0.00 0.00 0.00 62 1017.9
20260505152037 74 0.0 1.7 0.00 0.00 0.00 63 1017.9
20260505151517 73 0.0 0.0 0.00 0.00 0.00 63 1018.0
20260505151017 72 0.0 7.0 0.00 0.00 0.00 62 1017.9
20260505150517 72 0.0 0.0 0.00 0.00 0.00 61 1018.0
20260505140517 67 0.0 0.0 0.00 0.00 0.00 76 1017.6